This is the latest recevied weather packets stored in our database for station/object EA5DFV. If no packets are shown the sender has not sent any weather packets the latest 10 day(s).
| Time | Temp. | Humidity | Pressure | Rain* | Wind** | Luminosity | Snow |
|---|---|---|---|---|---|---|---|
| 1778139207 | 17.78° C | 78% | 1011.7 hPa | 0 mm | - | 490 W/m² | - |
| 1778138900 | 17.78° C | 78% | 1011.6 hPa | 0 mm | - | 287 W/m² | - |
| 1778138611 | 17.22° C | 79% | 1011.7 hPa | 0 mm | - | 258 W/m² | - |
| 1778138307 | 17.22° C | 79% | 1011.7 hPa | 0 mm | - | 146 W/m² | - |
| 1778138018 | 17.22° C | 80% | 1011.7 hPa | 0 mm | - | 155 W/m² | - |
| 1778137708 | 16.67° C | 80% | 1011.7 hPa | 0 mm | - | 132 W/m² | - |
| 1778137419 | 16.67° C | 80% | 1011.7 hPa | 0 mm | - | 114 W/m² | - |
| 1778137113 | 16.67° C | 81% | 1011.7 hPa | 0 mm | - | 107 W/m² | - |
| 1778136808 | 16.11° C | 81% | 1011.8 hPa | 0 mm | - | 127 W/m² | - |
| 1778136504 | 16.11° C | 81% | 1011.7 hPa | 0 mm | - | 70 W/m² | - |
| 1778136214 | 16.11° C | 81% | 1011.7 hPa | 0 mm | - | 69 W/m² | - |
| 1778135905 | 16.11° C | 81% | 1011.7 hPa | 0 mm | - | 67 W/m² | - |
| 1778135601 | 16.11° C | 82% | 1011.7 hPa | 0 mm | - | 98 W/m² | - |
| 1778135312 | 16.11° C | 82% | 1011.8 hPa | 0 mm | - | 116 W/m² | - |
| 1778135003 | 16.11° C | 81% | 1011.7 hPa | 0 mm | - | 77 W/m² | - |
| 1778134720 | 15.56° C | 82% | 1011.7 hPa | 0 mm | - | 67 W/m² | - |
| 1778134411 | 15.56° C | 82% | 1011.7 hPa | 0 mm | - | 60 W/m² | - |
| 1778134104 | 15.56° C | 82% | 1011.7 hPa | 0 mm | - | 79 W/m² | - |
| 1778133814 | 15.56° C | 82% | 1011.7 hPa | 0 mm | - | 70 W/m² | - |
| 1778133507 | 15.56° C | 82% | 1011.6 hPa | 0 mm | - | 65 W/m² | - |
| 1778133201 | 15.56° C | 83% | 1011.4 hPa | 0 mm | - | 58 W/m² | - |
| 1778132911 | 15.56° C | 83% | 1011.4 hPa | 0 mm | - | 49 W/m² | - |
| 1778132605 | 15.56° C | 83% | 1011.4 hPa | 0 mm | - | 47 W/m² | - |
| 1778132303 | 15° C | 83% | 1011.3 hPa | 0 mm | - | 35 W/m² | - |
| 1778132014 | 15° C | 83% | 1011.3 hPa | 0 mm | - | 32 W/m² | - |
* Rain latest hour (hover to see other rain measurements)
** Current wind speed in m/s (hover to see current wind gust speed)